Regional Weather Roundup
Issued by NWS

Home | Current Version | Previous Version | Graphics & Text | Print | Product List | Glossary On
Versions: 1 2 3 4 5 6 7 8 9 10 11 12 13 14 15 16 17 18 19 20 21 22 23 24 25 26 27 28 29 30 31 32 33 34 35 36 37 38 39 40 41 42 43 44 45 46 47 48 49 50
000
ASUS45 KBOI 061010
RWRID

IDAHO REGIONAL WEATHER ROUNDUP
NATIONAL WEATHER SERVICE BOISE ID
400 AM MDT MON JUL 06 2015

NOTE: "FAIR" INDICATES FEW OR NO CLOUDS BELOW 12000 FEET
WITH NO SIGNIFICANT WEATHER AND/OR OBSTRUCTIONS TO VISIBILITY

IDZ012-014-061100-
SOUTHWEST IDAHO


CITY           SKY/WX    TMP DP  RH WIND       PRES   REMARKS
BOISE          MOCLDY    70  54  56 SE6       30.00R
CALDWELL       MOCLDY    63  48  59 SE5       29.99S
MOUNTAIN HOME  MOCLDY    70  48  45 NW5       30.00S
$$

IDZ016-017-061100-
SOUTHCENTRAL IDAHO


CITY           SKY/WX    TMP DP  RH WIND       PRES   REMARKS
BURLEY         MOCLDY    63  55  75 S3        30.08S
JEROME         CLOUDY    67  53  61 SE6       30.08R
TWIN FALLS     CLOUDY    70  51  51 S13       30.06R
$$

IDZ019>023-061100-
SOUTHEAST IDAHO


CITY           SKY/WX    TMP DP  RH WIND       PRES   REMARKS
IDAHO FALLS    CLOUDY    65  55  70 MISG      30.14R
POCATELLO      CLOUDY    68  52  56 SW9       30.11S
REXBURG        CLOUDY    58  53  84 NE9       30.16R
$$

IDZ006-010-011-018-031-032-061100-
CENTRAL IDAHO MOUNTAINS


CITY           SKY/WX    TMP DP  RH WIND       PRES   REMARKS
MCCALL         CLEAR     55  49  80 E3        30.12F
HAILEY         CLOUDY    59  46  63 NW5       30.17S
STANLEY          N/A     44  40  85 CALM      30.26S
SALMON         CLEAR     61  50  67 N9        30.13R
CHALLIS        CLOUDY    63  40  42 W3        30.14R
$$

IDZ002-004-006-007-026-061100-
NORTHERN IDAHO


CITY           SKY/WX    TMP DP  RH WIND       PRES   REMARKS
LEWISTON       CLEAR     72  51  47 E5        29.95R
LOWELL           N/A     66  54  65 CALM      29.99R
COEUR D`ALENE  CLEAR     59  39  47 NE7       30.06R
MULLAN PASS    CLEAR     48  42  80 SE10G18   30.23R
$$


USA.gov is the U.S. government's official web portal to all federal, state and local government web resources and services.